Cloud_Cover
0 0 0 0 0 0 0 0 0 0 0 0 0 0 0 0 0 0 0 0 0 0 0 0 0 0 0 0 1 27 100 75 29 60 100 17 2 1 1 0 3 49 15 2 0
0 0 0 0 0 0 0 0 0 0 0 0 0 0 0 0 0 0 0 0 0 0 0 0 0 0 0 0 11 29 92 98 34 99 100 5 85 100 75 0 0 0 0 0 0
0 0 0 0 0 0 0 0 0 0 0 0 0 0 0 0 0 0 0 0 0 0 0 0 0 0 0 0 2 5 44 96 5 2 4 4 86 20 3 0 0 0 0 0 0
0 0 0 0 0 0 0 0 0 0 0 0 0 0 2 0 0 0 0 0 0 0 0 0 0 0 0 0 5 11 8 49 100 5 20 0 4 11 16 89 90 4 0 0 0
0 0 0 0 0 0 0 0 0 0 0 0 0 0 2 0 0 0 0 0 0 0 0 0 0 0 0 0 5 68 82 47 54 9 0 0 1 96 81 100 94 79 10 10 0
0 0 4 0 0 0 0 0 0 0 0 0 0 0 0 0 0 0 0 0 0 0 0 0 0 0 0 0 1 7 100 85 100 20 3 0 29 4 15 100 100 100 100 18 0
0 0 0 0 0 0 0 0 0 0 0 0 0 0 0 0 0 0 0 0 0 0 0 0 0 0 0 0 0 4 60 81 19 96 100 11 3 5 12 14 100 47 2 0 96
0 5 2 0 0 0 0 0 0 0 0 0 0 0 0 0 0 0 0 0 0 0 0 0 0 0 0 0 0 3 3 5 43 100 100 55 51 95 87 100 12 5 9 22 0
0 0 4 0 0 0 0 0 0 0 0 0 0 0 0 0 0 0 0 0 0 0 0 0 0 0 0 0 0 0 0 38 73 4 80 95 14 74 4 2 10 2 97 7 6
0 0 0 0 0 0 0 0 0 0 0 0 0 0 0 0 0 0 0 0 0 0 0 0 0 0 0 0 0 0 4 96 100 100 82 100 52 7 3 5 3 0 12 76 0
0 0 0 0 0 0 0 0 0 0 0 0 0 0 0 0 0 0 0 0 0 0 0 0 0 0 0 0 0 0 88 12 100 75 96 58 0 5 0 0 0 0 98 67 0
0 0 0 0 0 0 0 0 0 0 0 0 0 0 0 0 0 0 0 0 0 0 0 0 0 0 0 0 0 5 23 6 76 98 100 100 62 8 0 2 6 0 0 6 72
0 0 0 0 0 0 0 0 0 0 0 0 0 0 0 0 0 0 0 0 0 0 0 0 0 0 0 0 0 21 14 14 16 98 98 100 100 36 97 35 7 30 20 0 34
0 0 0 84 0 0 0 0 0 0 0 0 0 0 0 0 0 0 0 0 0 0 0 0 0 0 0 0 0 0 0 0 1 0 12 21 17 99 17 28 100 100 100 24 7
0 0 0 55 0 0 0 0 0 0 0 0 0 0 0 0 0 0 0 0 0 0 0 0 0 0 0 0 0 0 0 0 0 0 0 0 0 0 0 43 100 100 100 100 18
0 0 41 0 0 0 0 0 0 0 0 0 0 0 0 0 0 0 0 0 0 0 0 0 0 0 0 0 0 0 0 0 0 0 0 0 35 18 0 17 95 100 100 100 78
1 0 67 0 0 0 0 0 0 0 0 0 0 0 0 0 0 0 0 0 0 0 0 0 0 0 0 0 0 0 0 0 0 0 0 48 73 0 1 4 39 100 73 100 89
100 90 6 4 0 0 0 0 0 0 0 0 0 0 0 0 0 0 0 0 0 0 0 0 0 3 24 4 2 0 0 0 4 74 42 84 89 91 100 67 2 1 0 3 0
100 100 100 96 20 4 0 0 0 0 0 0 0 0 0 0 0 0 0 0 0 0 0 0 0 0 4 3 3 0 0 3 0 2 5 3 93 75 51 46 100 100 100 56 5
100 100 100 100 100 96 9 5 5 5 5 0 0 0 2 0 0 0 0 0 0 0 0 0 0 0 5 0 2 0 100 33 5 99 99 0 8 62 11 100 100 100 100 100 100
100 100 100 100 100 100 82 100 100 57 82 0 0 0 1 0 0 3 59 21 0 0 0 0 0 0 0 84 1 0 0 10 100 78 89 2 0 11 58 100 100 100 100 100 100
92 100 100 100 100 100 100 100 98 52 18 3 3 0 0 0 0 0 68 17 3 0 0 0 0 0 0 5 5 0 0 1 9 38 4 0 0 0 83 100 100 100 100 100 100
80 3 96 100 100 100 100 100 78 64 12 5 5 5 7 4 3 0 71 85 5 20 42 3 71 3 5 4 15 83 4 5 4 5 5 0 0 0 81 100 100 100 100 100 100
88 42 99 5 5 80 100 100 100 100 50 15 84 100 67 5 5 2 3 7 4 4 11 0 2 5 6 32 50 99 95 28 48 52 27 1 0 0 16 87 100 100 100 100 100
100 59 11 64 77 76 50 100 100 100 100 100 100 81 38 13 6 6 63 12 1 0 2 5 0 5 15 46 20 89 100 92 90 83 31 3 5 4 1 98 86 100 100 100 100
100 99 100 100 44 100 95 92 100 100 100 100 100 100 82 10 7 40 100 60 0 3 5 0 2 5 18 31 4 33 85 34 94 100 99 5 4 5 0 62 100 100 100 100 99
100 96 100 100 100 100 100 99 100 100 99 87 6 46 19 6 13 46 99 4 6 16 100 77 97 100 100 100 82 100 100 100 100 100 100 100 87 9 1 0 2 16 97 100 25